[[{"header":{"parameterUnit":"m.s-1","parameterCategory":1,"la1":30.2992,"la2":30.254,"lo1":-89.0895,"lo2":-89.0443,"dy":0.0025,"dx":0.0025,"nx":19,"ny":19,"refTime":"2026-04-15T09:00:00:Z","depth":0,"parameterNumber":2,"parameterNumberName":"U-component_of_WINDS"},"data":[0,0,0,-3.3432,-3.3434,-3.3504,-3.3504,-3.3603,-3.3604,0,0,0,0,0,0,0,0,0,0,0,-3.3419,-3.342,-3.3432,-3.3434,-3.3504,-3.3504,-3.3603,-3.3604,0,0,0,0,0,0,0,0,0,0,0,-3.3418,-3.342,-3.3421,-3.3435,-3.3504,-3.3504,-3.3603,-3.3547,0,0,0,0,0,0,0,0,0,0,-3.3477,-3.3472,-3.3419,-3.3421,-3.3435,-3.3504,-3.3504,-3.3544,-3.355,-3.3577,0,-3.3603,0,-3.3605,-3.3612,-3.3612,0,0,0,-3.3429,-3.3466,-3.3479,-3.3421,-3.3436,-3.3503,-3.3471,-3.3547,-3.3555,-3.3585,-3.3604,-3.3608,-3.3607,-3.3613,-3.3613,-3.3787,-3.3788,0,0,-3.3425,-3.3435,-3.3474,-3.3484,-3.3475,-3.3469,-3.3473,-3.3551,-3.3572,-3.3605,-3.361,-3.3609,-3.3613,-3.3614,-3.3786,-3.3787,0,0,0,-3.3418,-3.3433,-3.3443,-3.348,-3.3492,-3.3471,-3.3476,-3.3569,-3.3571,-3.3611,-3.361,-3.3614,-3.3615,-3.3784,-3.3786,-3.3848,0,0,0,-3.3415,-3.3428,-3.3441,-3.3448,-3.3491,-3.3531,-3.3492,-3.3566,-3.3574,-3.3609,-3.3614,-3.3616,-3.3783,-3.3785,-3.3843,-3.3875,0,0,0,-3.3412,-3.3428,-3.344,-3.3449,-3.3479,-3.353,-3.3537,-3.3567,-3.3574,-3.3612,-3.3617,-3.3782,-3.3785,-3.384,-3.3868,-3.3922,0,0,0,-3.3411,-3.3494,-3.3441,-3.3534,-3.3479,-3.3568,-3.3536,-3.3602,-3.3643,-3.3615,-3.3783,-3.3786,-3.3839,-3.3864,-3.3918,-3.3968,-3.3991,0,0,-3.3521,-3.3508,-3.3561,-3.3516,-3.3618,-3.3557,-3.3668,-3.3694,-3.3689,-3.3754,-3.3758,-3.3845,-3.3868,-3.3922,-3.4115,-3.4133,0,0,0,-3.3599,-3.3638,-3.3663,-3.3702,-3.3725,-3.3747,-3.3757,-3.3767,-3.3822,-3.3725,-3.388,-3.3893,-3.3924,-3.3947,-3.3962,-3.3988,-3.3798,-3.3797,-3.3797,-3.3767,-3.3757,-3.3845,-3.3843,-3.3881,-3.3891,-3.3921,-3.3936,-3.3913,-3.395,-3.3969,-3.4088,-3.4115,-3.4127,-3.4154,-3.3996,-3.3996,-3.3996,-3.3997,-3.3926,-3.3978,-3.3948,-3.4022,-3.401,-3.4072,-3.4085,-3.4067,-3.4123,-3.4073,-3.4099,-3.4044,-3.4147,-3.4169,-3.4001,-3.4,-3.4,-3.3999,-3.3999,-3.4033,-3.4056,-3.4069,-3.4124,-3.4169,-3.4164,-3.422,-3.4207,-3.4196,-3.4223,-3.424,-3.4239,-3.4235,-3.4232,-3.4233,-3.4233,-3.4234,-3.4234,-3.4234,-3.4139,-3.4151,-3.4199,-3.4232,-3.4256,-3.4286,-3.4297,-3.432,-3.4342,-3.4329,-3.4329,-3.4302,-3.416,-3.4123,-3.424,-3.4239,-3.4238,-3.4238,-3.4237,-3.4301,-3.4263,-3.4337,-3.4361,-3.4399,-3.4443,-3.4428,-3.4476,-3.4494,-3.4521,-3.449,-3.4387,-3.4371,-3.4359,-3.4329,-3.4493,-3.4493,-3.4493,-3.4493,-3.439,-3.4382,-3.4455,-3.4494,-3.4531,-3.4525,-3.4609,-3.462,-3.4625,-3.4635,-3.461,-3.4569,-3.4557,-3.4549,-3.4533,-3.4504,-3.4708,-3.4709,-3.4709,-3.4488,-3.4483,-3.4556,-3.4561,-3.4591,-3.4616,-3.4694,-3.474,-3.4738,-3.4717,-3.4642,-3.4633,-3.4567,-3.4546,-3.4521,-3.4496,-3.4443,0,0]},{"header":{"parameterUnit":"m.s-1","parameterCategory":1,"la1":30.2992,"la2":30.254,"lo1":-89.0895,"lo2":-89.0443,"dy":0.0025,"dx":0.0025,"nx":19,"ny":19,"refTime":"2026-04-15T09:00:00:Z","depth":0,"parameterNumber":3,"parameterNumberName":"V-component_of_WINDS"},"data":[0,0,0,3.6243,3.6244,3.629,3.629,3.6336,3.6336,0,0,0,0,0,0,0,0,0,0,0,3.6224,3.6224,3.6243,3.6244,3.629,3.629,3.6336,3.6336,0,0,0,0,0,0,0,0,0,0,0,3.6224,3.6224,3.6224,3.6244,3.629,3.629,3.6336,3.6305,0,0,0,0,0,0,0,0,0,0,3.6262,3.624,3.6224,3.6224,3.6244,3.629,3.629,3.6304,3.6307,3.631,0,3.6314,0,3.6326,3.6339,3.6339,0,0,0,3.6247,3.6237,3.6255,3.6224,3.6245,3.629,3.627,3.6306,3.6309,3.6314,3.6315,3.6317,3.6327,3.6339,3.6339,3.6353,3.6352,0,0,3.6245,3.6228,3.6253,3.6257,3.6252,3.6269,3.6272,3.6308,3.6306,3.6315,3.6318,3.6328,3.6339,3.634,3.6353,3.6353,0,0,0,3.6235,3.6226,3.6244,3.6255,3.6264,3.627,3.6273,3.6305,3.6312,3.6319,3.6328,3.6339,3.634,3.6353,3.6353,3.6333,0,0,0,3.6234,3.6221,3.6242,3.6233,3.6264,3.6286,3.6269,3.6309,3.6314,3.6328,3.6339,3.634,3.6353,3.6353,3.6333,3.6325,0,0,0,3.6223,3.622,3.6225,3.6232,3.6252,3.6285,3.6295,3.6311,3.6319,3.6339,3.634,3.6353,3.6353,3.6334,3.6326,3.6323,0,0,0,3.6205,3.6205,3.6224,3.6228,3.6251,3.6274,3.6295,3.6312,3.6326,3.634,3.6353,3.6353,3.6334,3.6327,3.6324,3.6317,3.6314,0,0,3.6196,3.6204,3.6207,3.6226,3.6241,3.6268,3.628,3.6307,3.6323,3.6341,3.6342,3.6333,3.6326,3.6324,3.63,3.6296,0,0,0,3.6199,3.6201,3.6209,3.6223,3.6246,3.6263,3.6291,3.6301,3.6318,3.633,3.6333,3.6329,3.6328,3.6325,3.6323,3.6322,3.6351,3.6351,3.6351,3.6161,3.6183,3.619,3.6218,3.6231,3.626,3.6272,3.629,3.6307,3.6307,3.6312,3.6295,3.6292,3.629,3.6289,3.6312,3.6311,3.6311,3.6311,3.6149,3.6155,3.6179,3.6195,3.6217,3.6229,3.6257,3.6268,3.6281,3.6293,3.6293,3.6303,3.6286,3.6286,3.631,3.631,3.631,3.6311,3.6311,3.6125,3.6132,3.6146,3.617,3.6184,3.6212,3.6224,3.6243,3.6261,3.6262,3.6268,3.6269,3.627,3.6264,3.6264,3.6264,3.6264,3.6264,3.6264,3.6095,3.6112,3.6121,3.6146,3.6158,3.6175,3.6205,3.6216,3.6233,3.6246,3.6247,3.6262,3.6281,3.6285,3.6263,3.6263,3.6263,3.6263,3.6263,3.6071,3.608,3.6094,3.6106,3.6137,3.615,3.6176,3.6197,3.6209,3.6214,3.623,3.6242,3.625,3.6252,3.6255,3.6227,3.6227,3.6227,3.6227,3.605,3.6058,3.6076,3.6094,3.6114,3.6139,3.6152,3.6175,3.6199,3.6208,3.6215,3.6221,3.6222,3.6229,3.6232,3.6235,3.6203,3.6203,3.6203,3.6036,3.6047,3.6054,3.6082,3.6107,3.6128,3.614,3.6157,3.6187,3.6202,3.6214,3.6215,3.6225,3.6228,3.6241,3.6245,3.6251,0,0]}]]